Flag Weather past 2 weeks in Voerde (Niederrhein), North Rhine-Westphalia, Germany

Now
38 °F

Passing clouds.


Feels Like: 36 °F
Forecast: 36 / 42 °F
Wind: 3 mph from East

Location: Duesseldorf

Current Time: Nov 28, 2014 at 8:27:02 PM

Latest Report: Nov 28, 2014 at 8:00 PM


Visibility: 9 mi

Pressure: 29.89 "Hg

Humidity: 93%

Dew point: 36 °F

Location of Voerde (Niederrhein)Location

Historic Weather in Voerde (Niederrhein) — Graph

°F

Voerde (Niederrhein) temperature yesterday

Maximum temperature yesterday: 47 °F (at 2:00 PM)
Minimum temperature yesterday: 43 °F (at 12:00 AM)
Average temperature yesterday: 44 °F

Past Weeks' High & Low Weather Summary

 TemperatureHumidityPressure
High58 °F (Nov 23, 2:00 PM)99% (Nov 20, 4:00 AM)30.36 "Hg (Nov 20, 4:00 AM)
Low30 °F (Nov 25, 5:00 AM)58% (Nov 24, 3:00 PM)29.53 "Hg (Nov 16, 5:00 PM)
Average46 °F84%29.95 "Hg
* Reported Nov 13 7:00 PM — Nov 28 7:00 PM, Voerde (Niederrhein), Weather by CustomWeather, © 2014

Note: Actual official high and low records may vary slightly from our data, if they occured in-between our weather recording intervals... More about our weather records

Advertising

Voerde (Niederrhein) weather history for previous 24 hours

 ConditionsComfort  
Time TempWeatherWind HumidityBarometerVisibility
7:00 PM
Nov 28
38 °FPassing clouds.3 mph90%29.87 "Hg9 mi
6:00 PM42 °FPassing clouds.2 mph84%29.86 "Hg9 mi
5:00 PM44 °FPassing clouds.2 mph79%29.84 "Hg9 mi
3:00 PM50 °FPartly sunny.2 mph68%29.80 "Hg12 mi
2:00 PM49 °FPartly sunny.3 mph69%29.81 "Hg12 mi
1:00 PM50 °FScattered clouds.5 mph69%29.80 "Hg9 mi
12:00 PM47 °FPartly sunny.3 mph75%29.81 "Hg7 mi
11:00 AM46 °FOvercast.6 mph77%29.82 "Hg11 mi
10:00 AM45 °FOvercast.5 mph80%29.82 "Hg9 mi
9:00 AM44 °FOvercast.3 mph80%29.81 "Hg9 mi
8:00 AM43 °FOvercast.3 mph82%29.79 "Hg7 mi
7:00 AM44 °FOvercast.3 mph81%29.78 "Hg9 mi
6:00 AM43 °FPassing clouds.5 mph85%29.78 "Hg9 mi
5:00 AM43 °FPassing clouds.3 mph84%29.78 "Hg9 mi
3:00 AM43 °FOvercast.6 mph84%29.78 "Hg9 mi
2:00 AM44 °FOvercast.7 mph84%29.78 "Hg9 mi
1:00 AM43 °FOvercast.8 mph85%29.78 "Hg9 mi
12:00 AM43 °FPassing clouds.9 mph85%29.77 "Hg9 mi
11:00 PM
Nov 27
43 °FPassing clouds.8 mph85%29.76 "Hg9 mi
9:00 PM44 °FOvercast.5 mph88%29.76 "Hg9 mi
8:00 PM44 °FLight rain. Overcast.5 mph86%29.76 "Hg9 mi
Weather by CustomWeather, © 2014

See weather overviewHow to use our weather pages